SALSAT
1 46495U 20068K   25245.94754428  .00015180  00000-0  63030-3 0  9995
2 46495  97.8682 228.0223 0009817 216.6243 143.4323 15.23896780271524
TUBIN
1 48900U 21059X   25246.26012109  .00124303  00000-0  10787-2 0  9996
2 48900  97.6772  62.9597 0002600 265.1016  94.9948 15.68715588233430
LEDSAT
1 49069U 21073D   25246.19632310  .00276264  00000-0  16883-2 0  9990
2 49069  97.3794 332.0963 0005319 140.1146 220.0512 15.76573485224843
CUTE
1 49263U 21088D   25246.16152616  .00055185  00000-0  94956-3 0  9990
2 49263  97.4450 325.1003 0004977 282.1202  77.9492 15.50911771217671
TeikyoSat 4
1 49396U 21102B   25246.16058367  .00004566  00000-0  30043-3 0  9996
2 49396  97.4055 281.4896 0012037 191.7133 168.3818 15.07978322209447
Z-Sat
1 49399U 21102E   25246.23372842  .00009939  00000-0  53203-3 0  9996
2 49399  97.3746 285.2004 0018520 161.6860 198.5043 15.15078359209945
KOSEN 1
1 49402U 21102H   25246.07646027  .00015896  00000-0  70881-3 0  9992
2 49402  97.3640 289.1274 0016771 136.1325 224.1246 15.21361256210282
HO-113
1 50466U 21131B   25246.31500292  .00001178  00000-0  38106-3 0  9998
2 50466  98.5088 335.2461 0003299 227.2163 132.8749 14.40907178193795
SNUGLITE 2
1 52899U 22065F   25246.10122672  .00002934  00000-0  57625-3 0  9994
2 52899  98.1801  27.3056 0007199 196.6168 163.4799 14.63406473168998
UmKA 1 (RS40S)
1 57172U 23091G   25246.22868780  .00014942  00000-0  77238-3 0  9997
2 57172  97.5511 301.1769 0014967  43.6566 316.5848 15.16271623120457
CubeBel-2 (EU11S)
1 57175U 23091K   25246.21764042  .00023178  00000-0  10492-2 0  9994
2 57175  97.5508 302.8654 0012637  50.3098 309.9249 15.20824148120568
ENSO
1 58470U 23185J   25246.30251703  .00177067  00000-0  16155-2 0  9991
2 58470  97.3644 324.7452 0005348 138.2418 221.9252 15.67305133 98401
EIRSAT-1
1 58472U 23185L   25245.15735677  .02178344  59495-2  17064-2 0  9997
2 58472  97.3382 328.0167 0009892 260.7372  99.2797 16.16170578 98521
SONATE-2
1 59112U 24043Q   25246.10702696  .00038862  00000-0  10187-2 0  9997
2 59112  97.5230  19.2079 0010667 164.8781 195.2785 15.38520987 83476
MO-122
1 60209U 24125G   25246.03190201  .00039125  00000-0  10050-2 0  9994
2 60209  97.2703  96.8182 0017386 184.2616 175.8485 15.39042224 65083
GRBBeta
1 60237U 24128C   25246.22881090  .00011066  00000-0  79706-3 0  9990
2 60237  61.9911 140.7819 0056516  76.0850 284.6519 15.03340698 63076
Curium One
1 60242U 24128H   25246.04521843  .00019804  00000-0  13026-2 0  9993
2 60242  61.9810 138.3622 0056409  72.8204 287.9054 15.06333800 63107
ROBUSTA-3A
1 60243U 24128J   25246.27495420  .00020133  00000-0  13436-2 0  9992
2 60243  61.9881 138.6827 0055898  70.3234 290.3878 15.05814148 63125
CatSat
1 60246U 24125J   25246.03589016  .00039401  00000-0  12121-2 0  9999
2 60246  97.2518  95.0253 0041418 147.5186 212.8618 15.32700788 63060
HYPERVIEW-1G (RS66S)
1 61772U 24199AP  25246.22087687  .00049618  00000-0  12800-2 0  9998
2 61772  97.3401 115.0340 0010738 239.0967 120.9223 15.38952611 90119
AO-123
1 61781U 24199AY  25246.25488830  .00016018  00000-0  56145-3 0  9995
2 61781  97.3422 112.9182 0013656 251.6844 108.2911 15.29453604 89971
ZIMSAT 2
1 61783U 24199BA  25246.23643422  .00101209  00000-0  19608-2 0  9994
2 61783  97.3357 116.4733 0009711 227.8751 132.1674 15.47290823 93362
HADES-R (SO-124)
1 62690U 25009CK  25246.18182133  .00103280  00000-0  29612-2 0  9991
2 62690  97.4035 326.9681 0003393 157.8935 202.2455 15.35477860 35255
HYDRA-T
1 62692U 25009CM  25245.95342047  .00101518  00000-0  28760-2 0  9994
2 62692  97.4030 326.8154 0003186 151.5652 208.5766 15.35862147 35220
JINJUSat 1B
1 63210U 25052A   25246.16058595  .00027792  00000-0  12000-2 0  9996
2 63210  97.4289 139.2433 0005324  47.7236 312.4452 15.22460364 26261
NUSHSAT 1
1 63211U 25052B   25246.13759823  .00031739  00000-0  13516-2 0  9995
2 63211  97.4277 139.2510 0005457  51.4764 308.6961 15.22899571 26268
TEVEL2-4
1 63213U 25052D   25245.97286729  .00027775  00000-0  11980-2 0  9996
2 63213  97.4197 138.8283 0005142  66.5418 293.6359 15.22495829 26236
TEVEL2-5
1 63214U 25052E   25245.97491893  .00028287  00000-0  12212-2 0  9995
2 63214  97.4198 138.8261 0005180  66.6834 293.4947 15.22462091 26235
TEVEL2-6
1 63215U 25052F   25245.65065938  .00029384  00000-0  12704-2 0  9993
2 63215  97.4200 138.4988 0005224  67.1728 293.0059 15.22402965 26187
TEVEL2-1
1 63217U 25052H   25246.13473017  .00029214  00000-0  12713-2 0  9992
2 63217  97.4171 138.8651 0005537  74.8334 285.3515 15.22181084 26257
TEVEL2-3
1 63218U 25052J   25245.60895524  .00026030  00000-0  11343-2 0  9996
2 63218  97.4173 138.3481 0005682  76.0702 284.1166 15.22159469 26172
TEVEL2-2
1 63219U 25052K   25244.95211546  .00022027  00000-0  96208-3 0  9996
2 63219  97.4173 137.6981 0005727  77.3419 282.8457 15.22115012 26072
TEVEL2-9
1 63237U 25052AD  25246.13885860  .00027828  00000-0  12568-2 0  9994
2 63237  97.4238 138.7003 0010053  80.6600 279.5772 15.20889086 26236
TEVEL2-7
1 63238U 25052AE  25246.14515524  .00027642  00000-0  12515-2 0  9999
2 63238  97.4239 138.6960 0010119  80.4842 279.7537 15.20806497 26234
TEVEL2-8
1 63239U 25052AF  25246.14892669  .00027499  00000-0  12461-2 0  9998
2 63239  97.4235 138.6890 0010162  80.9414 279.2971 15.20776503 26232
HYDRA-W
1 63490U 25052BL  25245.44294757  .00077096  00000-0  28225-2 0  9996
2 63490  97.4180 138.8984 0013578  78.8784 281.3981 15.27643881 26195
HADES-ICM (SO-125)
1 63492U 25052BN  25245.68501606  .00063713  00000-0  23866-2 0  9995
2 63492  97.4187 139.0468 0013845  81.2685 279.0121 15.26948117 26222
